Location: Berg
(48.4333°N, 13.9167°E)
Time: 14:49:12
(UTC+00:00)

SL-16 R/B - Pass Details

Date: 18 September 2020
Orbit: 842 x 848 km, 71.0° (Epoch: 24 October)

Event Time Altitude Azimuth Distance (km) Brightness Sun altitude
Rises 17:36:11 0° 324° (NW) 3,417 6.1 -5.2°
Reaches altitude 10° 17:38:55 10° 314° (NW) 2,476 5.6 -5.6°
Maximum altitude 17:43:44 29° 256° (WSW) 1,497 4.4 -6.4°
Drops below altitude 10° 17:48:31 10° 198° (SSW) 2,458 4.7 -7.2°
Sets 17:51:13 0° 187° (S) 3,387 5.3 -7.6°
